Tracking 30923 objects as of 1-Jul-2025
HD Live streaming from Space Station
objects crossing your sky now

SL-3 DEB

Track SL-3 DEB now!
10-day predictions


NORAD ID: 14928
Int'l Code: 1983-075F
Perigee: 460.0 km
Apogee: 487.7 km
Inclination: 97.8 °
Period: 93.9 minutes
Semi major axis: 6844 km
RCS: 0.0341 m2 (small)
Launch date: July 24, 1983
Source: Commonwealth of Independent States (former USSR) (CIS)
Launch site: TYURATAM MISSILE AND SPACE COMPLEX (TTMTR)

Note: This is SATELLITE DEBRIS
Your satellite tracking list
Your tracking list is empty




NASA's NSSDC Master Catalog

Two Line Element Set (TLE):
1 14928U 83075F   25181.77752869  .00005410  00000-0  17119-3 0  9997
2 14928  97.7762 117.6476 0020235 208.2963 151.7181 15.33040769264811
Source of the keplerian elements: AFSPC